SCP
0 0 0 0 0 0 0 0 0 0 0 0 0 0 0 0 0 0 0 0 0 0 0 0 0 0 0 0 0 0 0 0 0 0 0 0 0 0 0 0 0 0 0
0 0 0 0 0 0 0 0 0 0 0 0 0 0 0 0 0 0 0 0 0 0 0 0 0 0 0 0 0 0 0 0 0 0 0 0 0 0 0 0 0 0 0
0 0 0 0 0 0 0 0 0 0 0 0 0 0 0 0 0 0 0 0 0 0 0 0 0 0 0 0 0 0 0 0 0 0 0 0 0 0 0 0 0 0 0
0 0 0 0 0 0 0 0 0 0 0 0 0 0 0 0 0 0 0 0 0 0 0 0 0 0 0 0 0 0 0 0 0 0 0 0 0 0 0 0 0 0 0
0 0 0 0 0 0 0 0 0 0 0 0 0 0 0 0 0 0 0 0 0 0 0 0 0 0 0 0 0 0 0 0 0 0 0 0 0 0 0 0 0 0 0
0 0 0 0 0 0 0 0 0 0 0 0 0 0 0 0 0 0 0 0 0 0 0 0 0 0 0 0 0 0 0 0 0 0 0 0 0 0 0 0 0 0 0
0 0 0 0 0 0 0 0 0 0 0 0 0 0 0 0 0 0 0 0 0 0 0 0 0 0 0 0 0 0 0 0 0 0 0 0 0 0 0 0 0 0 0
0 0 0 0 0 0 0 0 0 0 0 0 0 0 0 0 0 0 0 0 0 0 0 0 0 0 0 0 0 0 0 0 0 0 0 0 0 0 0 0 0 0 0
0 0 0 0 0 0 0 0 0 0 0 0 0 0 0 0 0 0 0 0 0 0 0 0 0 0 0 0 0 0 0 0 0 0 0 0 0 0 0 0 0 0 0
0 0 0 0 0 0 0 0 0 0 0 0 0 0 0 0 0 0 0 0 0 0 0 0 0 0 0 0 0 0 0 0 0 0 0 0 0 0 0 0 0 0 0
0 0 0 0 0 0 0 0 0 0 0 0 0 0 0 0 0 0 0 0 0 0 0 0 0 0 0 0 0 0 0 0 0 0 0 0 0 0 0 0 0 0 0
0 0 0 0 0 0 0 0 0 0 0 0 0 0 0 0 0 0 0 0 0 0 0 0 0 0 0 0 0 0 0 0 0 0 0 0 0 0 0 0 0 0 0
0 0 0 0 0 0 0 0 0 0 0 0 0 0 0 0 0 0 0 0 0 0 0 0 0 0 0 0 0 0 0 0 0 0 0 0 0 0 0 0 0 0 0
-0 -0 0 0 0 0 0 0 0 0 0 0 0 0 0 0 0 0 0 0 0 0 0 0 0 0 0 0 0 0 0 0 0 0 0 0 0 0 0 0 0 0 0
-0 -0 0 0 0 0 0 0 0 0 0 0 0 0 0 0 0 0 0 0 0 0 0 0 0 0 0 0 0 0 0 0 0 0 0 0 0 0 0 0 0 0 0
-0 -0 0 0 0 0 0 0 0 0 0 0 0 0 0 0 0 0 0 0 0 0 0 0 0 0 0 0 0 0 0 0 0 0 0 0 0 0 0 0 0 0 0
0 0 0 0 0 0 0 0 0 0 0 0 0 0 0 0 0 0 0 0 0 0 0 0 0 0 0 0 0 0 0 0 0 0 0 0 0 0 0 0 0 0 0
0 0 0 0 0 0 0 0 0 0 0 0 0 0 0 0 0 0 0 0 0 0 0 0 0 0 0 0 0 0 0 0 0 0 0 0 0 0 0 0 0 0 0
0 0 0 0 0 0 0 0 0 0 0 0 0 0 0 0 0 0 0 0 0 0 0 0 0 0 0 0 0 0 0 0 0 0 0 0 0 0 0 0 0 0 0
-0 -0 0 0 0 0 0 0 0 0 0 0 0 0 0 0 0 0 0 0 0 0 0 0 0 0 0 0 0 0 0 0 0 0 0 0 0 0 0 0 0 0 0
-0 -0 0 0 0 0 0 0 0 0 0 0 0 0 0 0 0 0 0 0 0 0 0 0 0 0 0 0 0 0 0 0 0 0 0 0 0 0 0 0 0 0 0
-0 -0 -0 -0 0 0 0 0 0 0 0 0 0 0 0 0 0 0 0 0 0 0 0 0 0 0 0 0 0 0 0 0 0 0 0 0 0 0 0 0 0 0 0
0 0 0 0 0 0 0 0 0 0 0 0 0 0 0 0 0 0 0 0 0 0 0 0 0 0 0 0 0 0 0 0 0 0 0 0 0 0 0 0 0 0 0
0 0 0 0 0 0 0 0 0 0 0 0 0 0 0 0 0 0 0 0 0 0 0 0 0 0 0 0 0 0 0 0 0 0 0 0 0 0 0 0 0 0 0
0 0 0 0 0 0 0 0 0 0 0 0 0 0 0 0 0 0 0 0 0 0 0 0 0 0 0 0 0 0 0 0 0 0 0 0 0 0 0 0 0 0 0
0 0 0 0 -0 0 0 0 0 0 0 0 0 0 0 0 0 0 0 0 0 0 0 0 0 0 0 0 0 0 0 0 0 0 0 0 0 0 0 0 0 0 0
Wind_Speed
13 11 12 12 12 13 15 17 16 15 13 11 10 10 10 8 8 8 10 11 10 11 9 7 7 7 6 7 6 4 4 3 2 1 2 3 3 4 4 4 4 4 5
10 10 10 11 13 15 15 16 17 17 16 13 11 9 8 7 7 6 9 11 11 11 10 9 8 8 6 6 6 5 3 3 3 3 1 3 4 3 3 3 4 5 3
13 11 10 11 12 14 16 16 17 17 17 13 8 5 4 3 5 7 8 10 11 11 10 11 9 8 8 8 8 7 7 5 3 4 4 3 4 3 3 3 4 4 3
12 11 11 11 12 14 14 15 16 16 16 14 12 13 11 11 11 8 8 8 11 11 11 11 10 9 8 8 8 8 6 6 4 3 4 4 3 2 3 3 3 3 5
11 11 12 13 12 12 12 13 14 15 15 15 16 15 12 10 6 6 8 9 9 10 11 11 10 10 9 9 8 8 7 6 6 5 3 3 2 3 3 5 4 3 4
10 10 9 8 8 9 10 11 13 14 15 16 16 16 15 11 9 9 10 9 7 8 10 10 10 10 9 9 9 9 9 7 7 5 4 4 4 4 4 6 5 5 4
7 7 7 8 8 9 10 11 13 14 14 15 16 16 16 15 15 13 12 10 7 8 11 10 10 9 9 9 8 8 8 8 8 7 6 5 5 4 4 4 5 5 4
6 7 8 9 8 10 11 12 14 13 14 15 15 14 14 11 11 12 10 11 9 9 9 10 10 10 9 9 8 7 8 7 8 8 7 5 5 4 4 4 3 4 4
7 7 7 7 8 9 11 13 14 13 14 15 14 13 13 12 11 10 10 8 7 7 9 10 10 9 9 9 9 7 8 7 7 7 7 6 5 4 4 4 4 4 5
6 6 6 7 7 8 8 9 11 13 12 13 13 11 13 13 11 10 11 10 9 8 9 9 10 9 9 9 9 7 6 7 7 6 6 6 5 4 4 4 4 5 5
7 7 7 6 6 5 6 7 8 9 10 12 12 11 11 11 10 10 11 11 9 9 10 10 10 10 9 9 8 8 7 8 7 6 7 7 5 4 4 4 4 4 4
6 5 5 4 4 5 6 7 8 9 10 10 10 11 10 10 10 11 10 10 10 10 10 9 10 9 9 9 10 9 9 9 9 8 7 7 5 6 4 4 5 4 5
5 4 4 4 6 6 7 7 8 9 8 9 10 10 10 11 11 11 10 9 9 9 9 9 10 9 9 9 9 9 9 9 8 7 7 7 6 6 4 4 4 4 3
4 4 5 5 6 6 7 7 8 8 7 8 9 10 11 12 11 10 9 9 9 9 9 9 9 9 8 8 8 8 8 7 7 7 7 6 7 7 6 5 5 4 3
6 6 6 6 6 6 6 7 7 7 7 8 9 11 10 9 9 9 9 8 9 9 9 8 8 7 7 8 9 8 8 7 6 5 6 6 6 7 6 4 4 4 3
8 8 7 7 7 8 8 7 7 7 7 8 9 9 8 9 9 9 9 8 8 8 8 8 8 8 6 9 12 9 7 6 7 6 5 4 5 6 7 6 6 6 4
9 8 8 8 8 8 8 8 8 6 7 8 8 8 9 9 10 9 9 9 9 8 8 8 8 8 8 11 12 11 7 6 6 6 5 3 3 4 3 4 5 5 6
9 8 8 7 7 6 6 6 5 6 7 7 7 8 8 9 8 9 9 9 7 8 8 7 8 7 7 10 11 11 7 5 5 5 6 5 4 4 4 3 3 3 3
9 8 7 7 6 6 6 5 5 6 6 7 8 8 9 9 9 10 10 7 7 7 7 7 7 7 6 10 10 10 5 4 4 4 4 5 4 6 5 3 3 2 2
7 6 6 5 5 5 4 5 6 6 8 9 8 8 8 9 10 10 8 6 6 7 6 6 6 7 6 9 10 10 5 5 4 3 3 5 5 5 5 4 4 4 3
6 6 4 4 5 4 4 5 5 8 8 6 5 6 7 8 8 7 6 6 6 6 5 5 4 5 6 8 11 10 5 5 5 4 3 3 5 5 5 3 3 4 2
5 4 4 4 4 3 4 5 6 6 3 3 4 5 6 6 6 7 6 6 7 7 6 5 4 3 4 6 9 10 8 6 5 4 3 3 5 4 4 3 3 2 1
5 4 4 5 4 2 3 5 5 3 3 3 4 4 4 5 6 7 8 7 7 6 5 5 5 3 3 4 8 9 9 8 4 3 5 5 5 3 2 2 2 1 1
5 4 4 4 5 3 3 4 2 2 3 4 4 4 5 5 5 5 6 7 7 6 6 6 5 4 4 4 4 4 5 6 4 4 5 5 4 2 1 1 1 1 1
5 4 4 5 5 3 3 2 2 3 4 4 4 4 4 5 5 4 4 5 5 7 7 6 7 7 6 7 9 6 5 5 5 5 3 2 2 2 1 1 1 1 1
5 4 4 4 4 3 3 2 2 4 5 4 4 4 4 4 4 4 3 2 3 5 6 6 6 4 6 9 9 9 9 9 9 6 4 3 3 3 3 2 2 1 2
Wind_Direction
236 225 215 206 198 193 191 190 189 185 180 181 184 186 193 193 194 196 195 193 192 189 188 190 188 185 191 195 190 182 194 206 170 156 298 294 264 250 243 233 231 233 231
241 231 217 202 196 193 192 191 190 186 186 189 189 189 185 188 192 193 196 196 193 191 193 191 191 191 193 195 193 183 181 198 173 164 184 302 315 286 248 234 230 237 236
230 226 215 207 199 195 193 191 192 189 190 184 173 158 151 160 182 196 199 200 196 195 195 195 193 193 192 200 200 192 186 201 206 185 174 198 241 285 292 251 239 238 235
228 222 214 209 203 201 194 192 190 189 188 181 178 177 185 196 200 196 197 197 198 197 197 195 195 196 197 201 202 197 194 188 206 211 214 210 190 207 285 292 269 250 243
224 219 213 210 205 196 190 190 187 189 186 185 187 188 197 202 191 184 191 199 202 202 200 198 197 199 200 203 201 197 198 197 200 198 193 210 220 211 223 266 278 279 254
227 223 219 208 203 191 187 185 185 189 187 188 190 193 196 192 184 191 196 201 202 204 204 201 201 203 202 202 203 201 201 204 205 205 194 186 194 207 210 240 256 261 261
223 219 210 204 201 192 189 186 186 190 189 190 194 197 198 195 196 197 200 200 201 206 207 201 202 203 203 201 198 201 206 204 205 208 210 209 215 201 200 230 257 263 269
222 217 212 202 199 198 192 189 191 193 190 192 197 198 197 198 203 202 200 203 207 209 201 200 202 203 200 199 197 204 208 205 209 213 211 214 220 208 203 208 229 272 278
226 221 216 206 200 199 199 194 194 195 194 195 195 197 197 199 203 200 200 203 205 199 195 197 200 201 199 198 196 206 209 205 211 215 215 219 221 215 217 212 204 223 268
238 232 221 214 210 207 203 197 197 197 196 195 196 198 200 202 201 196 200 202 201 195 190 195 198 199 199 198 197 204 206 205 213 211 213 222 223 219 215 214 214 213 232
242 235 229 220 213 207 199 199 199 199 199 198 198 198 199 199 196 200 203 202 197 194 194 195 197 198 199 197 198 205 200 207 213 210 212 222 215 215 217 214 214 219 217
251 245 234 222 216 213 210 206 203 203 204 200 197 199 198 194 196 202 202 197 196 195 195 192 195 198 198 196 199 203 200 204 210 211 210 220 212 219 218 214 220 224 217
271 265 247 230 222 218 214 212 209 209 206 195 195 197 196 195 199 202 197 192 192 191 190 189 194 197 197 196 199 200 201 205 209 207 208 214 207 220 220 217 221 223 222
278 268 258 247 234 222 217 216 216 209 200 195 194 198 201 199 199 195 191 190 189 188 189 191 193 195 193 194 194 195 199 203 206 205 206 208 206 216 215 218 222 217 221
285 271 258 252 245 235 226 219 218 209 198 195 200 206 202 195 191 190 190 186 187 189 186 185 188 188 190 194 191 192 194 196 199 202 206 209 211 216 213 214 213 205 216
275 268 261 256 246 234 227 222 219 212 197 200 208 205 194 190 190 190 185 182 184 182 180 185 187 190 196 194 189 186 188 190 193 200 205 208 209 217 224 233 228 213 214
270 264 257 249 246 237 224 219 217 205 196 203 206 199 192 191 191 184 180 185 185 178 182 187 187 193 196 188 187 186 181 186 193 195 193 199 205 201 199 227 238 243 246
271 267 261 257 251 239 226 220 208 198 198 203 204 198 191 190 184 179 185 187 180 181 186 188 188 187 191 186 186 181 179 181 188 191 189 190 195 200 196 192 204 227 243
269 265 259 250 248 238 221 203 202 198 200 206 206 200 190 184 181 184 187 184 177 182 185 182 181 184 189 186 181 171 170 172 182 184 183 184 194 210 203 187 200 227 254
274 274 272 256 251 247 209 192 202 201 210 212 208 197 187 184 186 187 182 176 176 180 175 177 181 180 182 182 177 169 165 170 176 173 185 196 200 208 203 191 192 215 235
275 274 271 261 253 240 195 202 207 216 221 212 198 189 186 184 182 175 170 164 162 161 166 169 173 177 179 178 178 177 172 174 173 177 184 198 200 204 209 210 202 225 223
284 282 275 274 274 234 198 212 222 225 205 182 184 186 182 172 163 163 164 161 160 163 167 166 167 175 178 178 184 184 182 173 169 179 183 192 194 201 209 218 228 228 183
286 288 273 279 286 253 211 221 235 208 170 173 183 178 167 164 164 165 164 162 164 169 173 171 176 177 173 181 184 182 177 173 167 172 180 183 182 176 184 213 213 171 145
290 293 288 282 284 276 251 238 229 180 171 181 181 171 164 164 163 165 166 169 172 174 175 177 180 175 174 177 174 170 166 165 158 152 161 163 157 145 170 184 170 150 188
293 293 283 277 278 279 266 255 205 176 182 183 178 172 167 165 163 164 172 176 184 180 178 182 178 177 188 193 180 165 163 161 158 138 128 135 148 158 167 170 180 179 184
293 292 285 279 283 282 277 269 216 184 176 176 176 172 164 157 155 147 114 98 138 158 163 167 168 180 176 169 173 172 169 164 158 143 155 173 181 189 193 196 206 210 210